Regional Weather Roundup
Issued by NWS

Home | Current Version | Previous Version | Text Only | Print | Product List | Glossary Off
Versions: 1 2 3 4 5 6 7 8 9 10 11 12 13 14 15 16 17 18 19 20 21 22 23 24 25 26 27 28 29 30 31 32 33 34 35 36 37 38 39 40 41 42 43 44 45 46 47 48 49 50

000
ASUS43 KIND 262359
RWRIN

WEATHER ROUNDUP FOR INDIANA
NATIONAL WEATHER SERVICE INDIANAPOLIS IN
800 PM EDT FRI AUG 26 2016

NOTE: "FAIR" INDICATES FEW OR NO CLOUDS BELOW 12,000 FEET WITH NO
SIGNIFICANT WEATHER AND/OR OBSTRUCTIONS TO VISIBILITY.

* - STATION DOES NOT REPORT WEATHER SUCH AS PRECIPITATION OR FOG.

+ - STATION NOT QUALITY CONTROLLED BY THE NATIONAL WEATHER SERVICE.
    USE DATA WITH CAUTION...ESPECIALLY DEWPOINT AND RELATIVE
    HUMIDITY OBSERVATIONS.

INZ001>003-010>013-019-020-270100-
NORTHWEST INDIANA

CITY           SKY/WX    TMP DP  RH WIND       PRES   REMARKS
GARY /AIRPORT/ MOCLDY    75  68  78 NE8       30.11F
KNOX *+        CLOUDY    73  46  38 CALM      30.10S
MONTICELLO +   LGT RAIN  76  69  76 E3        30.09R
6HR MIN TEMP:  76; 6HR MAX TEMP:  84;

RENSSELAER +   CLOUDY    73  68  83 NE6       30.10R

$$

LMZ046-743>745-270100-
SOUTHERN LAKE MICHIGAN

STATION/POSITION TIME  TEMP    WIND        PRES    WAVE
                       AIR SEA DIR/SP/G            HT
                 (UTC) (F)     (DEG/KT/KT) (MB)    (FT)
BURNS HARBOR     2301   74      60/ 12/ 14 1020.0F
MICHIGAN CITY    2300   73      20/ 13/ 14   N/A
5NW MICH CITY    2300   74 75   40/ 10/ 14   N/A     2

$$

INZ004-005-014>016-021>024-270100-
NORTH CENTRAL INDIANA

CITY           SKY/WX    TMP DP  RH WIND       PRES   REMARKS
GOSHEN         MOCLDY    76  67  73 E3        30.12R
6HR MIN TEMP:  76; 6HR MAX TEMP:  84;

SOUTH BEND     MOCLDY    75  68  78 N9        30.12S
6HR MIN TEMP:  75; 6HR MAX TEMP:  84;


$$

INZ006>009-017-018-025>027-270100-
NORTHEAST INDIANA

CITY           SKY/WX    TMP DP  RH WIND       PRES   REMARKS
ANGOLA *+      CLEAR     75  70  83 CALM      30.13R
FORT WAYNE     CLOUDY    79  65  62 SE5       30.12R
6HR MIN TEMP:  79; 6HR MAX TEMP:  86;


$$

INZ028-029-035-036-043>045-051>053-270100-
WEST CENTRAL INDIANA

CITY           SKY/WX    TMP DP  RH WIND       PRES   REMARKS
CRAWFORDSVL +  RAIN      71  71 100 E3        30.11R
6HR MIN TEMP:  71; 6HR MAX TEMP:  85; 6HR PCP:  0.01;

GREENCASTLE +  CLOUDY    72  72 100 E3        30.11R
LAFAYETTE      LGT RAIN  76  74  93 SE3       30.08R
6HR MIN TEMP:  76; 6HR MAX TEMP:  86; 6HR PCP:  0.03;

TERRE HAUTE    CLOUDY    76  72  87 E3        30.08R
6HR MIN TEMP:  74; 6HR MAX TEMP:  88; 6HR PCP:  0.08;


$$

INZ030>032-037>040-046>048-054>057-064-065-270100-
CENTRAL INDIANA

CITY           SKY/WX    TMP DP  RH WIND       PRES   REMARKS
COLUMBUS       MOCLDY    75  72  88 N10       30.11R
INDIANAPOLIS   CLOUDY    72  70  93 E6        30.09F
6HR MIN TEMP:  72; 6HR MAX TEMP:  92; 6HR PCP:  1.82;

-EAGLE CREEK   CLOUDY    73  69  87 S6        30.10F
6HR MIN TEMP:  72; 6HR MAX TEMP:  91; 6HR PCP:  0.11;

KOKOMO *+      CLOUDY    75  73  94 E6        30.10F
MT COMFORT *+  CLOUDY    68  66  94 S6        30.11F
SHELBYVILLE    CLOUDY    74  66  76 N14       30.11S
6HR MIN TEMP:  74; 6HR MAX TEMP:  90; 6HR PCP:  0.01;


$$

INZ033-034-041-042-049-050-058-059-270100-
EAST CENTRAL INDIANA

CITY           SKY/WX    TMP DP  RH WIND       PRES   REMARKS
MUNCIE         CLOUDY    79  75  87 E5        30.11S
6HR MIN TEMP:  79; 6HR MAX TEMP:  88;


$$

INZ060-061-067>069-081>083-085>088-270100-
SOUTHWEST INDIANA

CITY           SKY/WX    TMP DP  RH WIND       PRES   REMARKS
EVANSVILLE     MOCLDY    80  72  76 NW7       30.06R
6HR MIN TEMP:  80; 6HR MAX TEMP:  93;

HUNTINGBURG *+ PTCLDY    82  75  78 CALM      30.05F
6HR MIN TEMP:  82; 6HR MAX TEMP:  91;


$$

INZ062-063-066-070>080-084-089>092-270100-
SOUTH CENTRAL AND SOUTHEAST INDIANA

CITY           SKY/WX    TMP DP  RH WIND       PRES   REMARKS
BLOOMINGTON    PTCLDY    77  69  76 NE7       30.10R
6HR MIN TEMP:  77; 6HR MAX TEMP:  90;

MADISON *+     CLEAR     81  75  83 CALM      30.11R

$$





USA.gov is the U.S. government's official web portal to all federal, state and local government web resources and services.